Location: C�mpuri de-Sus
(45.9500°N, 22.5500°E)
Time: 19:55:16
(UTC+00:00)

Cosmos 839 Rocket - Pass Details

Date: 02 December 2023
Orbit: 960 x 2093 km, 65.9° (Epoch: 20 February)

Event Time Altitude Azimuth Distance (km) Brightness Sun altitude
Exits shadow 00:56:56 32° 136° (SE) 3,118 6.5 -50.0°
Maximum altitude 01:00:32 38° 105° (ESE) 2,904 6.5 -49.4°
Drops below altitude 10° 01:11:05 10° 44° (NE) 4,509 7.9 -47.7°
Sets 01:14:43 0° 37° (NE) 5,432 8.4 -47.1°
